Weather History for Miami, FL

Change the Weather History Date:

Friday, October 7, 2011

  Actual Average Record
Temperature  
Mean Temperature 79 °F 81 °F  
Max Temperature 87 °F 88 °F 93 °F (2009)
Min Temperature 70 °F 75 °F 66 °F (1908)
Degree Days  
Heating Degree Days 0 0  
Month to date heating degree days 0 0  
Since 1 July heating degree days 0 0  
Cooling Degree Days 14 16  
Month to date cooling degree days 116 117  
Year to date cooling degree days 4102 3729  
Growing Degree Days 28 (Base 50)    
Moisture  
Dew Point 69 °F    
Average Humidity 74    
Maximum Humidity 93    
Minimum Humidity 55    
Precipitation  
Precipitation 3.05 in 0.27 in 3.92 in (1924)
Month to date precipitation 3.05 1.91  
Year to date precipitation 48.47 52.17  
Snow  
Snow 0.00 in - - ()
Month to date snowfall 0.0  
Since 1 July snowfall 0.0  
Since 1 September snowfall 0.0  
Snow Depth 0.00 in    
Sea Level Pressure  
Sea Level Pressure 30.02 in    
Wind  
Wind Speed 10 mph (NE)    
Max Wind Speed 30 mph    
Max Gust Speed 41 mph    
Visibility 9 miles    
Events Rain , Thunderstorm    
T = Trace of Precipitation, MM = Missing Value Source: NWS Daily Summary

Daily Weather History Graph

Daily Weather History Graph

Search for Another Location

Airport:

Trip Planner

Search our weather history database for the weather conditions in past years. The results will help you decide how hot, cold, wet, or windy it might be!

Date:

Astronomy

Oct. 07, 2011 Rise Set
Actual Time 7:16 AM EDT 7:01 PM EDT
Civil Twilight 6:53 AM EDT 7:24 PM EDT
Nautical Twilight 6:26 AM EDT 7:51 PM EDT
Astronomical Twilight 5:59 AM EDT 8:18 PM EDT
Moon 4:25 PM EDT (10/7) 3:26 AM EDT (10/7)
Length of Visible Light 12h 31m
Length of Day
11h 45m
Waxing Gibbous, 83% of the Moon is Illuminated
Oct 7
Waxing Gibbous
Oct 11
Full
Oct 19
Last Quarter
Oct 26
New
Nov 2
First Quarter

Hourly Weather History & Observations

Time (EDT) Temp. Heat Index Dew Point Humidity Pressure Visibility Wind Dir Wind Speed Gust Speed Precip Events Conditions
12:53 AM 81.0 °F 83.3 °F 66.9 °F 62% 30.01 in 10.0 mi East 13.8 mph 21.9 mph N/A   Mostly Cloudy
1:53 AM 81.0 °F 83.3 °F 66.9 °F 62% 30.00 in 10.0 mi East 12.7 mph - N/A   Scattered Clouds
2:53 AM 80.1 °F 82.3 °F 66.9 °F 64% 29.99 in 10.0 mi ENE 9.2 mph - N/A   Scattered Clouds
3:53 AM 81.0 °F 83.3 °F 66.9 °F 62% 29.98 in 10.0 mi ENE 9.2 mph - N/A   Mostly Cloudy
4:53 AM 80.1 °F 82.3 °F 66.9 °F 64% 29.97 in 10.0 mi ENE 6.9 mph - N/A   Scattered Clouds
5:53 AM 80.1 °F 82.1 °F 66.0 °F 62% 29.99 in 10.0 mi ENE 6.9 mph - N/A   Mostly Cloudy
6:53 AM 80.1 °F 82.3 °F 66.9 °F 64% 30.02 in 10.0 mi NE 6.9 mph - N/A   Mostly Cloudy
7:53 AM 80.1 °F 82.7 °F 68.0 °F 67% 30.03 in 10.0 mi NE 5.8 mph - N/A   Mostly Cloudy
8:53 AM 81.0 °F 83.8 °F 68.0 °F 65% 30.04 in 10.0 mi NE 9.2 mph - N/A   Mostly Cloudy
9:47 AM 80.6 °F 83.2 °F 68.0 °F 65% 30.05 in 10.0 mi NE 13.8 mph 19.6 mph N/A Thunderstorm Thunderstorm
9:53 AM 80.1 °F 82.3 °F 66.9 °F 64% 30.06 in 10.0 mi ENE 16.1 mph 21.9 mph N/A Thunderstorm Thunderstorm
10:40 AM 80.6 °F 83.9 °F 69.8 °F 70% 30.06 in 10.0 mi NE 6.9 mph - 0.00 in   Mostly Cloudy
10:53 AM 81.0 °F 84.4 °F 70.0 °F 69% 30.06 in 10.0 mi NE 9.2 mph - 0.00 in   Mostly Cloudy
11:53 AM 82.0 °F 85.9 °F 70.0 °F 67% 30.04 in 10.0 mi ENE 11.5 mph - N/A   Mostly Cloudy
12:53 PM 84.0 °F 88.4 °F 70.0 °F 63% 30.03 in 10.0 mi ENE 17.3 mph 24.2 mph N/A   Mostly Cloudy
1:53 PM 84.0 °F 87.8 °F 69.1 °F 61% 30.01 in 10.0 mi ENE 16.1 mph 25.3 mph N/A   Mostly Cloudy
2:53 PM 84.9 °F 87.6 °F 66.9 °F 55% 30.00 in 10.0 mi ENE 17.3 mph 24.2 mph N/A   Mostly Cloudy
3:53 PM 86.0 °F 90.1 °F 69.1 °F 57% 29.98 in 10.0 mi ENE 15.0 mph 23.0 mph 0.00 in   Mostly Cloudy
4:53 PM 81.0 °F 83.8 °F 68.0 °F 65% 29.99 in 10.0 mi ESE 11.5 mph - N/A   Mostly Cloudy
5:53 PM 82.9 °F 86.5 °F 69.1 °F 63% 29.98 in 10.0 mi ENE 18.4 mph 24.2 mph N/A   Mostly Cloudy
6:53 PM 79.0 °F - 70.0 °F 74% 29.99 in 10.0 mi East 11.5 mph - 0.00 in   Mostly Cloudy
7:53 PM 79.0 °F - 71.1 °F 77% 29.99 in 10.0 mi NNE 5.8 mph - N/A   Mostly Cloudy
8:00 PM 78.8 °F - 71.6 °F 78% 30.00 in 10.0 mi NNE 6.9 mph - N/A Thunderstorm Thunderstorm
8:15 PM 78.8 °F - 69.8 °F 74% 30.01 in 10.0 mi NNE 8.1 mph - N/A Thunderstorm Thunderstorm
8:19 PM 77.0 °F - 69.8 °F 78% 30.03 in 0.5 mi NE 24.2 mph 32.2 mph 0.00 in Rain , Thunderstorm Heavy Thunderstorms and Rain
8:48 PM 71.6 °F - 69.8 °F 94% 30.05 in 1.5 mi NNE 6.9 mph 18.4 mph 1.09 in Rain , Thunderstorm Heavy Thunderstorms and Rain
8:53 PM 71.1 °F - 69.1 °F 93% 30.04 in 1.5 mi Variable 5.8 mph - 1.26 in Rain , Thunderstorm Thunderstorms and Rain
9:12 PM 73.4 °F - 69.8 °F 88% 30.03 in 7.0 mi North 3.5 mph - 0.02 in Rain , Thunderstorm Light Thunderstorms and Rain
9:37 PM 73.4 °F - 69.8 °F 88% 30.03 in 8.0 mi Calm Calm - 0.06 in Rain Light Rain
9:53 PM 73.0 °F - 71.4 °F 95% 30.02 in 10.0 mi WNW 3.5 mph - 0.06 in Rain Light Rain
10:53 PM 73.9 °F - 68.5 °F 83% 30.04 in 10.0 mi Variable 5.8 mph - 0.06 in   Overcast
11:17 PM 71.6 °F - - N/A% 30.03 in 2.5 mi ENE 11.5 mph - 0.11 in Rain Heavy Rain
11:53 PM 72.0 °F - 68.5 °F 89% 30.04 in 4.0 mi Calm Calm - 0.74 in Rain , Thunderstorm Light Thunderstorms and Rain